Simultaneous Nadir Overpasses (SNOs) Predictions

Prediction of SNOs between AQUA and METOP-B Satellite Orbit:

Table of predicted SNOs for the next 14.0 days since TLE Epoch: 7/14/2017
Index Date (AQUA) Time (AQUA) Lat,Lon (AQUA) SZA (AQUA ) Date (METOP-B) Time (METOP-B) Lat,Lon (METOP-B) SZA (METOP-B ) Distance(km) Time Diff (sec)
1 07/16/2017 22:30:49 -73.78, 16.58 127.36 07/16/2017 22:30:02 -73.78, 16.60 127.36 1.07 47
2 07/16/2017 23:20:17 73.84,-175.89 52.70 07/16/2017 23:20:41 73.82,-175.95 52.69 2.29 24
3 07/19/2017 18:05:03 -73.80, 82.99 126.85 07/19/2017 18:04:21 -73.80, 83.06 126.84 2.33 42
4 07/19/2017 18:54:31 73.86,-109.50 53.23 07/19/2017 18:55:00 73.84,-109.50 53.21 1.36 29
5 07/22/2017 13:39:17 -73.77, 149.50 126.33 07/22/2017 13:38:42 -73.77, 149.41 126.31 2.74 35
6 07/22/2017 14:28:46 73.88, -43.12 53.80 07/22/2017 14:29:20 73.86, -43.05 53.78 3.33 34
7 07/25/2017 09:13:32 -73.80,-144.13 125.71 07/25/2017 09:13:02 -73.80,-144.13 125.70 0.16 30
8 07/25/2017 10:03:00 73.87, 23.36 54.38 07/25/2017 10:03:40 73.88, 23.40 54.38 1.90 40
9 07/28/2017 04:47:46 -73.83, -77.77 125.04 07/28/2017 04:47:21 -73.82, -77.68 125.05 3.47 25
10 07/28/2017 05:37:13 73.85, 89.82 55.00 07/28/2017 05:38:00 73.84, 89.72 54.98 3.32 47




NCC Satellite Simultaneous Nadir Overpasses (SNOs) Prediction Service
